Location: *
(46.1866°S, 178.5290°W)
Time: 02:27:07
(UTC+00:00)

Cosmos 1328 Rocket - Pass Details

Date: 19 May 2021
Orbit: 600 x 628 km, 82.5° (Epoch: 12 June)

Event Time Altitude Azimuth Distance (km) Brightness Sun altitude
Rises 06:12:04 0° 183° (S) 2,951 7.0 -17.8°
Reaches altitude 10° 06:14:27 10° 175° (S) 2,038 6.1 -18.2°
Enters shadow 06:18:13 39° 122° (ESE) 970 4.1 -18.8°
